Location: Ar Ranvel
(48.3000°N, 4.8833°W)
Time: 22:05:03
(UTC+00:00)

Meteor 2-10 Rocket - Pass Details

Date: 02 November 2021
Orbit: 733 x 885 km, 81.2° (Epoch: 30 November)

Event Time Altitude Azimuth Distance (km) Brightness Sun altitude
Rises 18:55:10 0° 222° (SW) 3,317 7.4 -19.8°
Reaches altitude 10° 18:57:55 10° 234° (SW) 2,364 6.8 -20.2°
Maximum altitude 19:02:27 28° 292° (WNW) 1,423 5.5 -21.0°
Drops below altitude 10° 19:06:54 10° 352° (N) 2,300 6.1 -21.7°
Sets 19:09:32 0° 4° (N) 3,211 6.7 -22.1°
